[[{"header":{"parameterUnit":"m.s-1","parameterCategory":2,"la1":30.2991,"la2":30.254,"lo1":-89.0895,"lo2":-89.0444,"dy":0.0017,"dx":0.0017,"nx":28,"ny":28,"refTime":"2025-11-10T09:00:00:Z","depth":"0","parameterNumber":2,"parameterNumberName":"U-component_of_CURRENTS"},"data":[0,0,0,0,0,0,0,0,0,0,0,0,0,0,0,0,0,0,0,0,0,0,0,0,0,0,0,0,0,0,0,0,0,0,0,0,0,0,0,0,0,0,0,0,0,0,0,0,0,0,0,0,0,0,0,0,0,0,-0.226,-0.226,0,-0.226,-0.226,-0.226,-0.224,-0.2239,-0.2239,-0.2239,-0.2235,-0.2235,-0.2236,0,0,0,0,0,0,0,0,0,0,0,0,0,-0.2255,-0.2255,-0.2259,-0.226,-0.226,-0.226,-0.226,-0.226,-0.224,-0.2239,-0.2239,-0.2238,-0.2235,-0.2235,-0.2236,0,0,0,0,0,0,0,0,0,0,0,0,0,-0.2255,-0.2255,-0.2259,-0.2251,-0.225,-0.226,-0.226,-0.226,-0.224,-0.2239,-0.2239,-0.2238,-0.2235,-0.2235,-0.2236,-0.225,0,0,-0.2237,-0.2237,0,0,0,0,0,0,0,0,-0.2255,-0.2255,-0.2252,-0.2252,-0.2251,-0.2251,-0.2258,-0.2257,-0.224,-0.2242,-0.2239,-0.2238,-0.2242,-0.2241,-0.224,-0.2249,-0.2249,-0.2237,-0.2237,-0.2237,-0.2237,0,0,0,0,0,0,0,-0.2255,-0.2255,-0.2258,-0.2252,-0.2252,-0.2253,-0.2252,-0.2257,-0.2243,-0.2242,-0.2241,-0.2244,-0.2241,-0.224,-0.224,-0.2249,-0.2237,-0.2237,-0.2237,-0.2238,-0.226,-0.226,0,0,0,0,0,0,-0.2258,-0.2255,-0.2258,-0.2258,-0.2254,-0.2253,-0.2252,-0.225,-0.2243,-0.2242,-0.2244,-0.2243,-0.224,-0.224,-0.224,-0.224,-0.2237,-0.2238,-0.2238,-0.226,-0.226,-0.2261,0,0,0,0,0,0,-0.2258,-0.2259,-0.2258,-0.2258,-0.2258,-0.2254,-0.2252,-0.225,-0.2244,-0.2246,-0.2244,-0.2239,-0.2239,-0.2239,-0.2237,-0.224,-0.2238,-0.2238,-0.2259,-0.226,-0.226,-0.225,0,0,0,0,0,0,-0.2258,-0.2258,-0.2253,-0.2258,-0.2259,-0.2254,-0.2253,-0.2251,-0.2248,-0.2246,-0.2241,-0.224,-0.2239,-0.2237,-0.2238,-0.2241,-0.2238,-0.2259,-0.226,-0.226,-0.225,-0.225,-0.225,0,0,0,0,0,-0.2258,-0.225,-0.2253,-0.2253,-0.2253,-0.2254,-0.2254,-0.2248,-0.2248,-0.2241,-0.224,-0.224,-0.2242,-0.2237,-0.2238,-0.2241,-0.2259,-0.2259,-0.226,-0.225,-0.225,-0.225,0,0,0,0,0,0,-0.2245,-0.2248,-0.2251,-0.2244,-0.2247,-0.2251,-0.2244,-0.2248,-0.2242,-0.2239,-0.2241,-0.224,-0.2242,-0.2245,-0.224,-0.2251,-0.2252,-0.2253,-0.2244,-0.2244,-0.2245,-0.2242,-0.2239,0,0,0,0,0,-0.2243,-0.2234,-0.2244,-0.2237,-0.2238,-0.2243,-0.2242,-0.2242,-0.2242,-0.2239,-0.2238,-0.2242,-0.2248,-0.2247,-0.2251,-0.2256,-0.2256,-0.2261,-0.2261,-0.2261,-0.2261,-0.2266,-0.2266,-0.2263,-0.2263,-0.2263,0,0,-0.2235,-0.2237,-0.2231,-0.2234,-0.2234,-0.2237,-0.224,-0.2237,-0.2238,-0.2241,-0.2236,-0.2241,-0.225,-0.2253,-0.2254,-0.2253,-0.2261,-0.2262,-0.2262,-0.2262,-0.2267,-0.2267,-0.2267,-0.2264,-0.2264,-0.2264,0,0,-0.2219,-0.2219,-0.2209,-0.2214,-0.2218,-0.2225,-0.2225,-0.223,-0.2227,-0.2229,-0.2235,-0.2239,-0.2245,-0.2251,-0.2257,-0.2263,-0.2263,-0.2269,-0.2265,-0.2269,-0.2269,-0.2269,-0.2261,-0.226,-0.2267,-0.2267,-0.2267,0,-0.2212,-0.2201,-0.2207,-0.2206,-0.2206,-0.222,-0.2217,-0.2223,-0.2226,-0.2227,-0.2224,-0.2241,-0.2245,-0.2258,-0.2259,-0.2263,-0.2261,-0.2261,-0.2269,-0.2269,-0.2269,-0.226,-0.2259,-0.2267,-0.2267,-0.2267,-0.2267,0,-0.2196,-0.2188,-0.2183,-0.2186,-0.219,-0.2186,-0.2203,-0.2206,-0.2211,-0.2218,-0.2226,-0.2233,-0.2242,-0.2249,-0.2254,-0.2265,-0.2261,-0.2268,-0.2265,-0.2268,-0.2259,-0.2258,-0.2266,-0.2266,-0.2266,-0.2267,0,0,-0.218,-0.2171,-0.217,-0.2162,-0.2177,-0.2176,-0.2189,-0.2198,-0.2204,-0.2211,-0.2215,-0.2231,-0.2237,-0.2245,-0.2256,-0.2261,-0.2258,-0.2264,-0.2264,-0.2249,-0.2257,-0.2238,-0.2236,-0.2266,-0.2266,-0.2266,-0.2246,0,-0.2163,-0.2143,-0.2153,-0.214,-0.2129,-0.2152,-0.2162,-0.2178,-0.2191,-0.2201,-0.2218,-0.2225,-0.2236,-0.2239,-0.2248,-0.2261,-0.2258,-0.2262,-0.2261,-0.2261,-0.2239,-0.2235,-0.2211,-0.219,-0.2246,-0.2245,-0.2245,0,-0.2154,-0.2132,-0.2108,-0.2104,-0.2104,-0.2106,-0.2122,-0.2134,-0.2165,-0.2175,-0.2195,-0.2212,-0.2229,-0.2234,-0.2249,-0.2252,-0.2251,-0.2256,-0.2256,-0.2242,-0.2242,-0.2198,-0.2187,-0.2106,-0.2245,-0.2245,-0.2245,0,-0.2128,-0.2112,-0.2083,-0.2081,-0.2079,-0.2077,-0.2086,-0.2118,-0.2126,-0.2159,-0.2169,-0.2196,-0.2204,-0.2219,-0.2235,-0.2241,-0.2246,-0.2255,-0.2233,-0.2231,-0.2212,-0.2209,-0.2119,-0.2255,-0.2255,-0.2255,-0.2255,0,-0.2106,-0.2085,-0.2063,-0.2043,-0.2016,-0.204,-0.2032,-0.2056,-0.2087,-0.2095,-0.2147,-0.216,-0.2201,-0.2215,-0.2228,-0.2227,-0.2237,-0.2228,-0.2226,-0.2207,-0.2204,-0.2135,-0.2091,-0.2254,-0.2254,-0.2254,-0.2254,0,-0.2074,-0.2065,-0.2028,-0.2006,-0.1997,-0.1979,-0.1985,-0.1982,-0.2031,-0.2046,-0.2055,-0.2123,-0.2153,-0.2185,-0.2207,-0.2209,-0.2146,-0.2208,-0.2177,-0.2171,-0.208,-0.2037,-0.1893,-0.1819,-0.2182,-0.2182,-0.2181,0,-0.2045,-0.2018,-0.1986,-0.1954,-0.1933,-0.1912,-0.1894,-0.1937,-0.1942,-0.2021,-0.202,-0.2073,-0.2107,-0.2139,-0.2174,-0.2189,-0.2102,-0.2142,-0.2152,-0.2063,-0.2013,-0.1934,-0.1876,-0.2119,-0.2118,-0.2117,-0.2116,0,-0.1966,-0.1966,-0.1929,-0.1878,-0.1842,-0.1803,-0.1791,-0.1794,-0.1855,-0.1894,-0.1949,-0.1992,-0.2072,-0.2102,-0.213,-0.2134,-0.2031,-0.2126,-0.2045,-0.196,-0.1856,-0.1789,-0.2133,-0.2109,-0.211,-0.211,-0.2111,-0.2111,-0.1902,-0.1867,-0.1831,-0.1783,-0.1734,-0.168,-0.1635,-0.1668,-0.1683,-0.1741,-0.1845,-0.1905,-0.2004,-0.207,-0.2059,-0.201,-0.1982,-0.196,-0.1916,-0.1844,-0.1761,-0.2081,-0.205,-0.205,-0.205,-0.2051,-0.2051,0,-0.1802,-0.1776,-0.1731,-0.1658,-0.1577,-0.1584,-0.1543,-0.1508,-0.1512,-0.1639,-0.1708,-0.1828,-0.1864,-0.1916,-0.192,-0.1817,-0.1752,-0.1738,-0.1624,-0.1579,-0.1884,-0.1872,-0.1786,-0.1786,-0.1786,-0.1786,-0.1786,-0.1786,-0.1746,-0.1678,-0.1667,-0.1514,-0.1454,-0.1326,-0.1284,-0.1277,-0.1336,-0.1442,-0.1548,-0.1673,-0.1812,-0.1743,-0.1621,-0.1587,-0.1427,-0.1399,-0.1324,-0.1558,-0.1576,-0.1592,-0.157,-0.1422,-0.1422,-0.1003,-0.0999,-0.0996]},{"header":{"parameterUnit":"m.s-1","parameterCategory":2,"la1":30.2991,"la2":30.254,"lo1":-89.0895,"lo2":-89.0444,"dy":0.0017,"dx":0.0017,"nx":28,"ny":28,"refTime":"2025-11-10T09:00:00:Z","depth":"0","parameterNumber":3,"parameterNumberName":"V-component_of_CURRENTS"},"data":[0,0,0,0,0,0,0,0,0,0,0,0,0,0,0,0,0,0,0,0,0,0,0,0,0,0,0,0,0,0,0,0,0,0,0,0,0,0,0,0,0,0,0,0,0,0,0,0,0,0,0,0,0,0,0,0,0,0,-0.0774,-0.0773,0,-0.073,-0.0729,-0.0728,-0.0695,-0.0694,-0.0694,-0.0694,-0.0599,-0.0597,-0.0595,0,0,0,0,0,0,0,0,0,0,0,0,0,-0.0829,-0.0828,-0.0774,-0.0773,-0.0773,-0.073,-0.0729,-0.0728,-0.0695,-0.0694,-0.0694,-0.0694,-0.06,-0.0597,-0.0594,0,0,0,0,0,0,0,0,0,0,0,0,0,-0.0796,-0.0827,-0.0774,-0.0752,-0.0749,-0.073,-0.0729,-0.0728,-0.0695,-0.0694,-0.0694,-0.0694,-0.0601,-0.0598,-0.0594,-0.0579,0,0,-0.0583,-0.0582,0,0,0,0,0,0,0,0,-0.0798,-0.0794,-0.0755,-0.0753,-0.0751,-0.0718,-0.0714,-0.0676,-0.0695,-0.0714,-0.0694,-0.0693,-0.0635,-0.0629,-0.0621,-0.0575,-0.0571,-0.0583,-0.0581,-0.058,-0.0579,0,0,0,0,0,0,0,-0.08,-0.0795,-0.0755,-0.0755,-0.0752,-0.0744,-0.0739,-0.0707,-0.0675,-0.0713,-0.071,-0.0707,-0.0633,-0.0624,-0.0618,-0.0569,-0.0583,-0.058,-0.0578,-0.0577,-0.0521,-0.0521,0,0,0,0,0,0,-0.0808,-0.0797,-0.0757,-0.0754,-0.0775,-0.0743,-0.0737,-0.0728,-0.0677,-0.0669,-0.0707,-0.0706,-0.063,-0.0622,-0.0614,-0.06,-0.058,-0.0576,-0.0574,-0.052,-0.0521,-0.0521,0,0,0,0,0,0,-0.0809,-0.0804,-0.0758,-0.0776,-0.077,-0.0743,-0.0732,-0.0727,-0.0714,-0.0674,-0.0665,-0.0699,-0.063,-0.0619,-0.0589,-0.0596,-0.0575,-0.0572,-0.0519,-0.052,-0.0521,-0.0567,0,0,0,0,0,0,-0.0811,-0.0805,-0.0803,-0.0776,-0.0769,-0.0746,-0.0733,-0.0727,-0.0713,-0.0711,-0.0664,-0.0655,-0.0629,-0.0595,-0.0586,-0.0591,-0.0569,-0.0519,-0.052,-0.0521,-0.0565,-0.0569,-0.0573,0,0,0,0,0,-0.0813,-0.0807,-0.0803,-0.0798,-0.0766,-0.0746,-0.0741,-0.0721,-0.0714,-0.0707,-0.0681,-0.0656,-0.0596,-0.0592,-0.0582,-0.0586,-0.0518,-0.0519,-0.0521,-0.0563,-0.0569,-0.0573,0,0,0,0,0,0,-0.0826,-0.0802,-0.0797,-0.0784,-0.0768,-0.0741,-0.0732,-0.0721,-0.0696,-0.0692,-0.0656,-0.0645,-0.0625,-0.0599,-0.0596,-0.0575,-0.0556,-0.0555,-0.0592,-0.0596,-0.0601,-0.0613,-0.0566,0,0,0,0,0,-0.0831,-0.0822,-0.0799,-0.079,-0.0781,-0.0758,-0.0749,-0.0735,-0.0711,-0.0699,-0.0671,-0.0644,-0.0623,-0.0605,-0.0581,-0.0561,-0.0548,-0.056,-0.0565,-0.0568,-0.0572,-0.0562,-0.0566,-0.0526,-0.0526,-0.0526,0,0,-0.0835,-0.0821,-0.0816,-0.0793,-0.0777,-0.0772,-0.0751,-0.0734,-0.0733,-0.0692,-0.0678,-0.0654,-0.0622,-0.0607,-0.0595,-0.0584,-0.0574,-0.057,-0.0573,-0.0575,-0.0564,-0.0568,-0.0571,-0.0527,-0.0526,-0.0526,0,0,-0.0841,-0.0824,-0.0821,-0.0808,-0.0789,-0.0778,-0.0776,-0.075,-0.0738,-0.0722,-0.0701,-0.0684,-0.0643,-0.063,-0.0616,-0.0628,-0.0599,-0.062,-0.0645,-0.0636,-0.0639,-0.0642,-0.0636,-0.0638,-0.062,-0.062,-0.062,0,-0.0849,-0.084,-0.0817,-0.0811,-0.0808,-0.0784,-0.0786,-0.0771,-0.0743,-0.0738,-0.0722,-0.0686,-0.0658,-0.0649,-0.0656,-0.0638,-0.0627,-0.0627,-0.0641,-0.0644,-0.0646,-0.0639,-0.0641,-0.0622,-0.0622,-0.0622,-0.0621,0,-0.0857,-0.0848,-0.0842,-0.0834,-0.0828,-0.0821,-0.0805,-0.0799,-0.0786,-0.0773,-0.0758,-0.0725,-0.0705,-0.0697,-0.0676,-0.068,-0.0667,-0.065,-0.0629,-0.0652,-0.0644,-0.0645,-0.0626,-0.0625,-0.0624,-0.0623,0,0,-0.089,-0.0854,-0.0857,-0.0855,-0.084,-0.0837,-0.0838,-0.0832,-0.0838,-0.0809,-0.0812,-0.0781,-0.0764,-0.0748,-0.0724,-0.0714,-0.072,-0.069,-0.0688,-0.0686,-0.0702,-0.0713,-0.0714,-0.0703,-0.0703,-0.0704,-0.0693,0,-0.0908,-0.0898,-0.0884,-0.0892,-0.0886,-0.0873,-0.0881,-0.0874,-0.086,-0.0856,-0.0824,-0.0813,-0.0782,-0.0776,-0.0762,-0.0728,-0.0723,-0.0725,-0.0678,-0.0677,-0.0685,-0.0716,-0.0814,-0.0815,-0.0694,-0.0694,-0.0694,0,-0.0938,-0.0921,-0.092,-0.0917,-0.0917,-0.0926,-0.094,-0.0941,-0.0928,-0.0915,-0.0896,-0.0867,-0.0847,-0.0819,-0.0777,-0.0778,-0.0749,-0.0722,-0.0721,-0.0715,-0.0689,-0.077,-0.082,-0.087,-0.0694,-0.0694,-0.0694,0,-0.0977,-0.0963,-0.0962,-0.0957,-0.0944,-0.0955,-0.0962,-0.096,-0.0967,-0.0951,-0.0953,-0.0916,-0.0902,-0.0858,-0.0797,-0.0788,-0.0752,-0.073,-0.0715,-0.0715,-0.0783,-0.0789,-0.0878,-0.0712,-0.0712,-0.0712,-0.0712,0,-0.1008,-0.101,-0.0979,-0.0974,-0.0995,-0.0984,-0.1014,-0.1011,-0.1015,-0.1035,-0.0985,-0.0991,-0.091,-0.0874,-0.0818,-0.0771,-0.0766,-0.0731,-0.0718,-0.0802,-0.081,-0.084,-0.0848,-0.0712,-0.0712,-0.0712,-0.0712,0,-0.104,-0.1019,-0.1014,-0.1,-0.1006,-0.102,-0.1046,-0.107,-0.1065,-0.1089,-0.1087,-0.1046,-0.1002,-0.0923,-0.0852,-0.0805,-0.0793,-0.0738,-0.0843,-0.0843,-0.0875,-0.0881,-0.0905,-0.0945,-0.0728,-0.0728,-0.0728,0,-0.1045,-0.1041,-0.1032,-0.104,-0.1031,-0.1054,-0.1083,-0.1094,-0.1121,-0.113,-0.1149,-0.1108,-0.1104,-0.0998,-0.0917,-0.0836,-0.0826,-0.0851,-0.0852,-0.0906,-0.0902,-0.0881,-0.0911,-0.0962,-0.0964,-0.0966,-0.0967,0,-0.105,-0.1049,-0.1042,-0.1058,-0.1083,-0.1116,-0.1154,-0.1188,-0.1213,-0.1246,-0.1277,-0.1274,-0.1187,-0.1166,-0.1041,-0.0969,-0.093,-0.0883,-0.0922,-0.1086,-0.1087,-0.111,-0.0934,-0.0983,-0.0981,-0.098,-0.0979,-0.0979,-0.1058,-0.1065,-0.1069,-0.1091,-0.1109,-0.1168,-0.122,-0.1288,-0.1358,-0.1451,-0.1409,-0.1478,-0.1419,-0.1276,-0.1178,-0.1111,-0.1044,-0.1101,-0.11,-0.1069,-0.1129,-0.0983,-0.1021,-0.1019,-0.1018,-0.1017,-0.1016,0,-0.1108,-0.111,-0.1112,-0.1141,-0.116,-0.1172,-0.1262,-0.1346,-0.1463,-0.1593,-0.1656,-0.1739,-0.1692,-0.1579,-0.1473,-0.1385,-0.1334,-0.132,-0.1348,-0.1365,-0.1241,-0.1276,-0.1392,-0.1392,-0.1392,-0.1392,-0.1392,-0.1392,-0.1141,-0.1177,-0.1179,-0.1198,-0.1193,-0.1269,-0.1326,-0.1476,-0.1607,-0.186,-0.2005,-0.2072,-0.202,-0.1811,-0.168,-0.1601,-0.1588,-0.1529,-0.149,-0.145,-0.143,-0.1412,-0.1448,-0.1599,-0.1599,-0.1662,-0.1663,-0.1664]}],[{"header":{"parameterUnit":"m.s-1","parameterCategory":2,"la1":30.2991,"la2":30.254,"lo1":-89.0895,"lo2":-89.0444,"dy":0.0017,"dx":0.0017,"nx":28,"ny":28,"refTime":"2025-11-10T09:00:00:Z","depth":"2","parameterNumber":2,"parameterNumberName":"U-component_of_CURRENTS"},"data":[0,0,0,0,0,0,0,0,0,0,0,0,0,0,0,0,0,0,0,0,0,0,0,0,0,0,0,0,0,0,0,0,0,0,0,0,0,0,0,0,0,0,0,0,0,0,0,0,0,0,0,0,0,0,0,0,0,0,-0.2261,-0.2261,0,-0.2262,-0.2262,-0.2261,-0.2242,-0.2241,-0.2241,-0.224,-0.2238,-0.2238,-0.2238,0,0,0,0,0,0,0,0,0,0,0,0,0,-0.2256,-0.2256,-0.2261,-0.2261,-0.2261,-0.2262,-0.2262,-0.2261,-0.2242,-0.2241,-0.2241,-0.224,-0.2238,-0.2238,-0.2238,0,0,0,0,0,0,0,0,0,0,0,0,0,-0.2256,-0.2256,-0.2261,-0.2253,-0.2252,-0.2262,-0.2262,-0.2261,-0.2242,-0.2241,-0.2241,-0.224,-0.2237,-0.2238,-0.2238,-0.2252,0,0,-0.224,-0.224,0,0,0,0,0,0,0,0,-0.2256,-0.2256,-0.2254,-0.2253,-0.2252,-0.2252,-0.2259,-0.2259,-0.2242,-0.2244,-0.224,-0.224,-0.2244,-0.2244,-0.2243,-0.2252,-0.2252,-0.224,-0.224,-0.224,-0.224,0,0,0,0,0,0,0,-0.2256,-0.2256,-0.2259,-0.2254,-0.2253,-0.2254,-0.2253,-0.2259,-0.2245,-0.2243,-0.2242,-0.2246,-0.2243,-0.2242,-0.2243,-0.2252,-0.224,-0.224,-0.224,-0.224,-0.2263,-0.2264,0,0,0,0,0,0,-0.2259,-0.2256,-0.2259,-0.2259,-0.2255,-0.2255,-0.2253,-0.2252,-0.2245,-0.2245,-0.2246,-0.2245,-0.2242,-0.2242,-0.2242,-0.2243,-0.224,-0.224,-0.2241,-0.2263,-0.2264,-0.2264,0,0,0,0,0,0,-0.2259,-0.226,-0.2259,-0.2259,-0.226,-0.2255,-0.2253,-0.2252,-0.2246,-0.2248,-0.2246,-0.2241,-0.2241,-0.2242,-0.224,-0.2243,-0.2241,-0.2241,-0.2263,-0.2263,-0.2264,-0.2254,0,0,0,0,0,0,-0.2259,-0.2259,-0.2254,-0.226,-0.226,-0.2256,-0.2254,-0.2252,-0.225,-0.2248,-0.2243,-0.2243,-0.2241,-0.2239,-0.224,-0.2244,-0.2241,-0.2262,-0.2263,-0.2264,-0.2254,-0.2254,-0.2254,0,0,0,0,0,-0.2259,-0.2251,-0.2254,-0.2254,-0.2255,-0.2256,-0.2255,-0.225,-0.225,-0.2243,-0.2242,-0.2243,-0.2245,-0.224,-0.2241,-0.2244,-0.2262,-0.2263,-0.2263,-0.2253,-0.2254,-0.2254,0,0,0,0,0,0,-0.2246,-0.2249,-0.2252,-0.2246,-0.2248,-0.2252,-0.2245,-0.225,-0.2244,-0.2241,-0.2244,-0.2243,-0.2244,-0.2248,-0.2243,-0.2255,-0.2255,-0.2256,-0.2247,-0.2248,-0.2248,-0.2245,-0.2242,0,0,0,0,0,-0.2244,-0.2236,-0.2245,-0.2238,-0.224,-0.2245,-0.2244,-0.2244,-0.2244,-0.2241,-0.224,-0.2244,-0.2251,-0.225,-0.2255,-0.2259,-0.2259,-0.2264,-0.2265,-0.2265,-0.2265,-0.2269,-0.227,-0.2267,-0.2267,-0.2267,0,0,-0.2236,-0.2238,-0.2232,-0.2235,-0.2236,-0.2238,-0.2241,-0.2239,-0.224,-0.2243,-0.2238,-0.2244,-0.2253,-0.2256,-0.2258,-0.2257,-0.2264,-0.2266,-0.2266,-0.2265,-0.227,-0.227,-0.227,-0.2267,-0.2267,-0.2267,0,0,-0.222,-0.222,-0.221,-0.2215,-0.222,-0.2226,-0.2227,-0.2232,-0.2229,-0.2232,-0.2237,-0.2242,-0.2248,-0.2255,-0.2261,-0.2267,-0.2266,-0.2272,-0.2269,-0.2273,-0.2273,-0.2273,-0.2264,-0.2264,-0.2271,-0.2271,-0.2271,0,-0.2213,-0.2202,-0.2208,-0.2207,-0.2208,-0.2222,-0.2219,-0.2225,-0.2229,-0.223,-0.2226,-0.2244,-0.2248,-0.2262,-0.2263,-0.2267,-0.2265,-0.2265,-0.2273,-0.2273,-0.2273,-0.2264,-0.2263,-0.2271,-0.2271,-0.2271,-0.2271,0,-0.2197,-0.2189,-0.2184,-0.2188,-0.2192,-0.2188,-0.2205,-0.2209,-0.2214,-0.2221,-0.2229,-0.2236,-0.2246,-0.2253,-0.2258,-0.2269,-0.2265,-0.2272,-0.2269,-0.2272,-0.2263,-0.2262,-0.227,-0.227,-0.227,-0.227,0,0,-0.2181,-0.2172,-0.2171,-0.2163,-0.2179,-0.2178,-0.2191,-0.22,-0.2207,-0.2214,-0.2219,-0.2234,-0.2241,-0.2249,-0.226,-0.2265,-0.2262,-0.2268,-0.2268,-0.2253,-0.2261,-0.2242,-0.2239,-0.227,-0.227,-0.227,-0.225,0,-0.2164,-0.2145,-0.2154,-0.2142,-0.2131,-0.2155,-0.2165,-0.2181,-0.2194,-0.2204,-0.2221,-0.2229,-0.224,-0.2243,-0.2252,-0.2265,-0.2262,-0.2266,-0.2265,-0.2265,-0.2243,-0.2239,-0.2035,-0.1999,-0.225,-0.225,-0.225,0,-0.2154,-0.2133,-0.211,-0.2106,-0.2106,-0.2108,-0.2124,-0.2137,-0.2169,-0.2179,-0.2198,-0.2216,-0.2233,-0.2238,-0.2254,-0.2256,-0.2255,-0.2261,-0.226,-0.2246,-0.2245,-0.2039,-0.1989,-0.2249,-0.2249,-0.2249,-0.2249,0,-0.2129,-0.2113,-0.2085,-0.2083,-0.2082,-0.2079,-0.2089,-0.2121,-0.2129,-0.2163,-0.2172,-0.2201,-0.2208,-0.2223,-0.2239,-0.2245,-0.225,-0.2259,-0.2237,-0.2235,-0.2064,-0.2047,-0.2259,-0.2259,-0.2259,-0.2259,-0.2259,0,-0.2106,-0.2086,-0.2064,-0.2045,-0.2018,-0.2043,-0.2035,-0.2059,-0.209,-0.2098,-0.2151,-0.2164,-0.2205,-0.222,-0.2232,-0.2231,-0.2242,-0.2232,-0.223,-0.2055,-0.2039,-0.2262,-0.2262,-0.2258,-0.2258,-0.2259,-0.2259,0,-0.2074,-0.2065,-0.203,-0.2008,-0.2,-0.1982,-0.1989,-0.1985,-0.2035,-0.2049,-0.2059,-0.2127,-0.2157,-0.2189,-0.2211,-0.2213,-0.222,-0.2212,-0.2001,-0.1976,-0.2202,-0.2202,-0.2187,-0.2186,-0.2185,-0.2185,-0.2184,0,-0.2045,-0.2019,-0.1987,-0.1956,-0.1936,-0.1915,-0.1897,-0.1941,-0.1946,-0.2024,-0.2024,-0.2077,-0.2101,-0.2133,-0.2111,-0.2109,-0.2195,-0.1959,-0.1944,-0.2195,-0.2195,-0.2197,-0.2198,-0.17,-0.1696,-0.1692,-0.1689,0,-0.1967,-0.1966,-0.193,-0.188,-0.1844,-0.1806,-0.1795,-0.1798,-0.1859,-0.1888,-0.1943,-0.1976,-0.2004,-0.1921,-0.1927,-0.1911,-0.1948,-0.189,-0.2181,-0.1773,-0.1741,-0.174,-0.1756,-0.1657,-0.166,-0.1662,-0.1664,-0.1666,-0.1903,-0.1868,-0.1832,-0.1785,-0.1737,-0.1683,-0.1638,-0.1641,-0.1643,-0.1646,-0.1771,-0.1746,-0.1785,-0.1684,-0.165,-0.1626,-0.1771,-0.1718,-0.1727,-0.1739,-0.1709,-0.1681,-0.1578,-0.1581,-0.1583,-0.1585,-0.1587,0,-0.1785,-0.1777,-0.1732,-0.166,-0.1568,-0.1587,-0.1546,-0.1479,-0.1433,-0.1462,-0.1468,-0.1376,-0.1314,-0.1376,-0.127,-0.1307,-0.1262,-0.129,-0.1207,-0.1239,-0.1268,-0.1212,-0.095,-0.0948,-0.0947,-0.0945,0,0,-0.1725,-0.1648,-0.1638,-0.1487,-0.1443,-0.1301,-0.1258,-0.1189,-0.1165,-0.1115,-0.1091,-0.1136,-0.127,-0.1053,-0.1057,-0.0983,-0.1092,-0.0941,-0.1445,-0.1372,-0.1398,-0.1505,-0.1456,0,0,0,0,0]},{"header":{"parameterUnit":"m.s-1","parameterCategory":2,"la1":30.2991,"la2":30.254,"lo1":-89.0895,"lo2":-89.0444,"dy":0.0017,"dx":0.0017,"nx":28,"ny":28,"refTime":"2025-11-10T09:00:00:Z","depth":"2","parameterNumber":3,"parameterNumberName":"V-component_of_CURRENTS"},"data":[0,0,0,0,0,0,0,0,0,0,0,0,0,0,0,0,0,0,0,0,0,0,0,0,0,0,0,0,0,0,0,0,0,0,0,0,0,0,0,0,0,0,0,0,0,0,0,0,0,0,0,0,0,0,0,0,0,0,-0.073,-0.073,0,-0.0686,-0.0685,-0.0685,-0.0651,-0.0651,-0.0651,-0.0651,-0.0557,-0.0555,-0.0553,0,0,0,0,0,0,0,0,0,0,0,0,0,-0.0785,-0.0785,-0.0731,-0.073,-0.073,-0.0686,-0.0685,-0.0685,-0.0651,-0.0651,-0.0651,-0.0651,-0.0558,-0.0555,-0.0552,0,0,0,0,0,0,0,0,0,0,0,0,0,-0.0752,-0.0784,-0.0731,-0.0709,-0.0706,-0.0686,-0.0685,-0.0684,-0.0651,-0.0651,-0.0651,-0.065,-0.0559,-0.0556,-0.0552,-0.0537,0,0,-0.0542,-0.054,0,0,0,0,0,0,0,0,-0.0754,-0.075,-0.0712,-0.071,-0.0707,-0.0675,-0.0671,-0.0633,-0.0651,-0.0671,-0.0651,-0.065,-0.0593,-0.0587,-0.0578,-0.0532,-0.0528,-0.0541,-0.0539,-0.0538,-0.0537,0,0,0,0,0,0,0,-0.0757,-0.0752,-0.0712,-0.0712,-0.0709,-0.0701,-0.0695,-0.0663,-0.0632,-0.0669,-0.0667,-0.0664,-0.0591,-0.0582,-0.0575,-0.0527,-0.0541,-0.0538,-0.0536,-0.0535,-0.0479,-0.048,0,0,0,0,0,0,-0.0765,-0.0754,-0.0713,-0.071,-0.0732,-0.07,-0.0694,-0.0685,-0.0634,-0.0626,-0.0664,-0.0663,-0.0588,-0.058,-0.0572,-0.0558,-0.0538,-0.0534,-0.0532,-0.0479,-0.0479,-0.048,0,0,0,0,0,0,-0.0766,-0.0761,-0.0715,-0.0733,-0.0726,-0.0699,-0.0689,-0.0684,-0.0671,-0.0631,-0.0622,-0.0656,-0.0587,-0.0577,-0.0547,-0.0554,-0.0533,-0.053,-0.0478,-0.0479,-0.048,-0.0526,0,0,0,0,0,0,-0.0767,-0.0762,-0.076,-0.0733,-0.0726,-0.0702,-0.0689,-0.0683,-0.067,-0.0668,-0.0621,-0.0612,-0.0586,-0.0553,-0.0544,-0.0549,-0.0527,-0.0477,-0.0478,-0.0479,-0.0524,-0.0528,-0.0532,0,0,0,0,0,-0.0769,-0.0764,-0.076,-0.0755,-0.0723,-0.0702,-0.0698,-0.0677,-0.067,-0.0664,-0.0638,-0.0614,-0.0554,-0.055,-0.054,-0.0544,-0.0477,-0.0478,-0.0479,-0.0522,-0.0527,-0.0532,0,0,0,0,0,0,-0.0783,-0.0759,-0.0754,-0.0741,-0.0725,-0.0697,-0.0689,-0.0678,-0.0654,-0.0649,-0.0613,-0.0603,-0.0583,-0.0557,-0.0555,-0.0533,-0.0514,-0.0513,-0.055,-0.0555,-0.0559,-0.0571,-0.0524,0,0,0,0,0,-0.0788,-0.0779,-0.0756,-0.0747,-0.0738,-0.0716,-0.0706,-0.0693,-0.0668,-0.0657,-0.0629,-0.0602,-0.0581,-0.0563,-0.0539,-0.052,-0.0506,-0.0519,-0.0523,-0.0527,-0.0531,-0.0521,-0.0525,-0.0484,-0.0484,-0.0484,0,0,-0.0792,-0.0778,-0.0773,-0.075,-0.0734,-0.0729,-0.0708,-0.0692,-0.069,-0.065,-0.0636,-0.0612,-0.058,-0.0565,-0.0554,-0.0542,-0.0533,-0.0529,-0.0532,-0.0534,-0.0523,-0.0527,-0.053,-0.0485,-0.0485,-0.0485,0,0,-0.0798,-0.0781,-0.0778,-0.0766,-0.0746,-0.0736,-0.0733,-0.0708,-0.0696,-0.068,-0.0659,-0.0643,-0.0602,-0.0588,-0.0574,-0.0587,-0.0558,-0.0578,-0.0604,-0.0595,-0.0598,-0.06,-0.0595,-0.0597,-0.0578,-0.0579,-0.0579,0,-0.0806,-0.0797,-0.0774,-0.0769,-0.0766,-0.0742,-0.0744,-0.0729,-0.0701,-0.0696,-0.0681,-0.0645,-0.0616,-0.0607,-0.0614,-0.0596,-0.0586,-0.0586,-0.06,-0.0603,-0.0605,-0.0599,-0.06,-0.0581,-0.0581,-0.058,-0.058,0,-0.0813,-0.0805,-0.08,-0.0791,-0.0786,-0.0779,-0.0763,-0.0757,-0.0745,-0.0731,-0.0717,-0.0684,-0.0664,-0.0656,-0.0635,-0.0639,-0.0626,-0.0609,-0.0588,-0.0611,-0.0604,-0.0604,-0.0584,-0.0584,-0.0583,-0.0582,0,0,-0.0846,-0.0811,-0.0815,-0.0813,-0.0797,-0.0795,-0.0796,-0.079,-0.0796,-0.0767,-0.077,-0.0739,-0.0723,-0.0707,-0.0683,-0.0673,-0.068,-0.0649,-0.0647,-0.0646,-0.0662,-0.0673,-0.0674,-0.0662,-0.0663,-0.0663,-0.0653,0,-0.0864,-0.0854,-0.0841,-0.0849,-0.0843,-0.0831,-0.0839,-0.0832,-0.0818,-0.0815,-0.0783,-0.0772,-0.0741,-0.0735,-0.0721,-0.0687,-0.0682,-0.0684,-0.0638,-0.0636,-0.0644,-0.0676,-0.052,-0.05,-0.0654,-0.0654,-0.0654,0,-0.0894,-0.0877,-0.0877,-0.0874,-0.0875,-0.0884,-0.0898,-0.0899,-0.0886,-0.0873,-0.0855,-0.0826,-0.0806,-0.0778,-0.0736,-0.0737,-0.0708,-0.0682,-0.0681,-0.0675,-0.0649,-0.05,-0.0495,-0.0654,-0.0654,-0.0654,-0.0654,0,-0.0933,-0.092,-0.0919,-0.0914,-0.0901,-0.0913,-0.0921,-0.0918,-0.0925,-0.0909,-0.0912,-0.0875,-0.0861,-0.0817,-0.0757,-0.0748,-0.0711,-0.069,-0.0676,-0.0676,-0.0527,-0.0515,-0.0672,-0.0672,-0.0672,-0.0672,-0.0672,0,-0.0963,-0.0966,-0.0936,-0.0931,-0.0953,-0.0942,-0.0972,-0.0969,-0.0974,-0.0993,-0.0944,-0.095,-0.087,-0.0833,-0.0777,-0.0731,-0.0726,-0.0691,-0.0678,-0.0541,-0.0531,-0.0647,-0.0644,-0.0672,-0.0672,-0.0672,-0.0672,0,-0.0995,-0.0975,-0.0971,-0.0958,-0.0964,-0.0978,-0.1005,-0.1029,-0.1024,-0.1048,-0.1046,-0.1005,-0.0962,-0.0883,-0.0812,-0.0765,-0.0713,-0.0698,-0.055,-0.0522,-0.068,-0.0679,-0.0688,-0.0689,-0.0689,-0.0689,-0.0689,0,-0.1,-0.0997,-0.0989,-0.0997,-0.0989,-0.1013,-0.1042,-0.1053,-0.108,-0.1089,-0.1108,-0.1068,-0.1043,-0.0937,-0.0759,-0.065,-0.0736,-0.0548,-0.0514,-0.0697,-0.0683,-0.0682,-0.0681,-0.0326,-0.0323,-0.0321,-0.0319,0,-0.1005,-0.1005,-0.0998,-0.1016,-0.1041,-0.1074,-0.1113,-0.1147,-0.1172,-0.1181,-0.1212,-0.1189,-0.1016,-0.0811,-0.065,-0.0572,-0.055,-0.0506,-0.0708,-0.037,-0.0361,-0.0346,-0.0356,-0.0299,-0.0301,-0.0303,-0.0304,-0.0304,-0.1013,-0.102,-0.1025,-0.1049,-0.1067,-0.1126,-0.1178,-0.1151,-0.1185,-0.112,-0.1188,-0.1045,-0.0908,-0.0547,-0.0453,-0.0332,-0.0394,-0.0386,-0.039,-0.0396,-0.038,-0.0375,-0.0312,-0.0314,-0.0316,-0.0317,-0.0319,0,-0.099,-0.1065,-0.1067,-0.1097,-0.1044,-0.1131,-0.122,-0.1171,-0.1134,-0.1026,-0.0953,-0.0734,-0.0509,-0.0409,-0.0135,-0.009,-0.0024,-0.0147,-0.006,-0.0078,-0.0095,-0.0062,0.009,0.009,0.0091,0.0091,0,0,-0.1003,-0.1007,-0.1009,-0.1002,-0.1061,-0.1041,-0.1094,-0.1036,-0.0927,-0.0765,-0.0631,-0.0453,-0.0424,-0.018,-0.0084,0.0007,-0.0055,0.0031,-0.0284,-0.0204,-0.0222,-0.0204,-0.0172,0,0,0,0,0]}],[{"header":{"parameterUnit":"m.s-1","parameterCategory":2,"la1":30.2991,"la2":30.254,"lo1":-89.0895,"lo2":-89.0444,"dy":0.0017,"dx":0.0017,"nx":28,"ny":28,"refTime":"2025-11-10T09:00:00:Z","depth":"4","parameterNumber":2,"parameterNumberName":"U-component_of_CURRENTS"},"data":[0,0,0,0,0,0,0,0,0,0,0,0,0,0,0,0,0,0,0,0,0,0,0,0,0,0,0,0,0,0,0,0,0,0,0,0,0,0,0,0,0,0,0,0,0,0,0,0,0,0,0,0,0,0,0,0,0,0,-0.1385,-0.1385,0,-0.1438,-0.1438,-0.1439,-0.1485,-0.1485,-0.1485,-0.1486,-0.159,-0.1592,-0.1595,0,0,0,0,0,0,0,0,0,0,0,0,0,-0.1349,-0.1349,-0.1385,-0.1385,-0.1386,-0.1437,-0.1438,-0.1439,-0.1485,-0.1485,-0.1486,-0.1486,-0.1589,-0.1592,-0.1595,0,0,0,0,0,0,0,0,0,0,0,0,0,-0.1381,-0.1349,-0.1385,-0.1413,-0.1416,-0.1437,-0.1438,-0.1439,-0.1485,-0.1485,-0.1486,-0.1486,-0.1588,-0.1592,-0.1595,-0.1607,0,0,-0.1606,-0.1608,0,0,0,0,0,0,0,0,-0.1379,-0.1382,-0.1409,-0.1411,-0.1415,-0.1454,-0.1464,-0.1497,-0.1484,-0.146,-0.1486,-0.1486,-0.1548,-0.1554,-0.1565,-0.1612,-0.1616,-0.1607,-0.1609,-0.161,-0.1611,0,0,0,0,0,0,0,-0.1376,-0.138,-0.1407,-0.1409,-0.1413,-0.1432,-0.1437,-0.147,-0.1502,-0.1463,-0.1466,-0.1469,-0.155,-0.1561,-0.1568,-0.1618,-0.1607,-0.161,-0.1612,-0.1613,-0.1736,-0.1737,0,0,0,0,0,0,-0.1365,-0.1378,-0.1406,-0.1409,-0.1396,-0.1432,-0.1438,-0.1442,-0.1501,-0.151,-0.1468,-0.1471,-0.1555,-0.1563,-0.1572,-0.1639,-0.161,-0.1614,-0.1616,-0.1735,-0.1736,-0.1738,0,0,0,0,0,0,-0.1364,-0.1367,-0.1403,-0.1393,-0.1399,-0.1432,-0.1436,-0.1443,-0.1477,-0.1504,-0.1515,-0.1498,-0.1555,-0.1567,-0.1622,-0.1642,-0.1615,-0.1619,-0.1734,-0.1735,-0.1737,-0.1743,0,0,0,0,0,0,-0.1362,-0.1366,-0.1378,-0.1392,-0.1399,-0.1431,-0.1436,-0.1443,-0.1476,-0.148,-0.1533,-0.1542,-0.1557,-0.1616,-0.1625,-0.1646,-0.1622,-0.1732,-0.1735,-0.1736,-0.1741,-0.1744,-0.1747,0,0,0,0,0,-0.1361,-0.137,-0.1378,-0.1382,-0.141,-0.1431,-0.1438,-0.1463,-0.1477,-0.1496,-0.1533,-0.1541,-0.1635,-0.162,-0.1631,-0.1653,-0.1731,-0.1734,-0.1736,-0.174,-0.1744,-0.1747,0,0,0,0,0,0,-0.1365,-0.1376,-0.1385,-0.1399,-0.1421,-0.1439,-0.146,-0.1476,-0.1519,-0.1532,-0.1558,-0.157,-0.1625,-0.1641,-0.1623,-0.1695,-0.1684,-0.1688,-0.1683,-0.1687,-0.1689,-0.1675,-0.1625,0,0,0,0,0,-0.1369,-0.1378,-0.1394,-0.1409,-0.142,-0.1445,-0.1462,-0.148,-0.1511,-0.1531,-0.1565,-0.1604,-0.1639,-0.1664,-0.1697,-0.174,-0.1735,-0.1761,-0.1764,-0.1766,-0.1762,-0.1774,-0.1777,-0.1746,-0.1745,-0.1745,0,0,-0.1374,-0.1382,-0.1388,-0.141,-0.143,-0.1451,-0.1458,-0.1489,-0.1514,-0.1536,-0.1591,-0.1619,-0.1653,-0.1698,-0.1724,-0.1717,-0.1772,-0.1769,-0.177,-0.1765,-0.1777,-0.178,-0.1782,-0.1747,-0.1747,-0.1747,0,0,-0.138,-0.1397,-0.1407,-0.1427,-0.1456,-0.1471,-0.1484,-0.1517,-0.1543,-0.159,-0.1611,-0.1652,-0.171,-0.1732,-0.1751,-0.1792,-0.1787,-0.1807,-0.1812,-0.1824,-0.1826,-0.1828,-0.1817,-0.1817,-0.1808,-0.1808,-0.1808,0,-0.139,-0.1399,-0.1416,-0.1433,-0.145,-0.1482,-0.1501,-0.1531,-0.158,-0.1599,-0.1612,-0.169,-0.1723,-0.1766,-0.178,-0.1798,-0.1794,-0.1794,-0.1826,-0.1828,-0.1829,-0.1817,-0.1818,-0.1808,-0.1808,-0.1808,-0.1808,0,-0.1394,-0.1416,-0.1426,-0.1454,-0.1479,-0.1502,-0.1537,-0.1572,-0.1605,-0.1628,-0.1684,-0.1723,-0.1764,-0.1784,-0.1797,-0.183,-0.1818,-0.1826,-0.1811,-0.1833,-0.1819,-0.182,-0.1809,-0.1809,-0.1809,-0.1808,0,0,-0.1368,-0.1419,-0.1423,-0.1443,-0.1491,-0.1507,-0.1555,-0.1593,-0.162,-0.1671,-0.17,-0.1763,-0.1778,-0.18,-0.1823,-0.1836,-0.1848,-0.1837,-0.1837,-0.1814,-0.1856,-0.1743,-0.1733,-0.1859,-0.186,-0.186,-0.1837,0,-0.1367,-0.1398,-0.1426,-0.1463,-0.1482,-0.1527,-0.1563,-0.1608,-0.1647,-0.1685,-0.1727,-0.1768,-0.1787,-0.1807,-0.1826,-0.1847,-0.1851,-0.1852,-0.1848,-0.1847,-0.1736,-0.1731,-0.1862,-0.1837,-0.1837,-0.1837,-0.1837,0,-0.135,-0.1375,-0.141,-0.1463,-0.1476,-0.1506,-0.156,-0.1597,-0.1657,-0.1687,-0.1731,-0.1763,-0.1803,-0.1812,-0.1845,-0.1844,-0.1849,-0.1856,-0.1856,-0.1748,-0.1735,-0.1815,-0.1838,-0.1838,-0.1838,-0.1838,-0.1838,0,-0.1302,-0.1359,-0.1386,-0.1405,-0.1473,-0.1499,-0.1534,-0.1596,-0.1625,-0.1685,-0.1707,-0.176,-0.1785,-0.1809,-0.1834,-0.1841,-0.1851,-0.1865,-0.1763,-0.1755,-0.1862,-0.186,-0.1875,-0.1875,-0.1875,-0.1875,-0.1875,0,-0.1269,-0.1296,-0.1369,-0.1382,-0.1414,-0.1471,-0.1507,-0.1551,-0.1609,-0.163,-0.1701,-0.1717,-0.1787,-0.1806,-0.1824,-0.1782,-0.1844,-0.175,-0.1739,-0.1864,-0.1863,-0.1861,-0.186,-0.1874,-0.1875,-0.1875,-0.1875,0,-0.1212,-0.1264,-0.13,-0.1371,-0.1393,-0.1414,-0.1482,-0.1499,-0.1568,-0.1595,-0.1614,-0.1686,-0.1704,-0.1752,-0.1783,-0.175,-0.1738,-0.1711,-0.1823,-0.1821,-0.1635,-0.1635,-0.1583,-0.1579,-0.1575,-0.1572,-0.157,0,-0.1186,-0.1198,-0.1275,-0.1291,-0.1325,-0.1368,-0.1386,-0.1464,-0.148,-0.1561,-0.1557,-0.1605,-0.1642,-0.1582,-0.1653,-0.1653,-0.1651,-0.1622,-0.164,-0.1609,-0.1604,-0.161,-0.1614,-0.1564,-0.1563,-0.1562,-0.1561,0,-0.1125,-0.1163,-0.1188,-0.1221,-0.1247,-0.127,-0.1306,-0.131,-0.1387,-0.1466,-0.1456,-0.1466,-0.1478,-0.1503,-0.1505,-0.1516,-0.1629,-0.1585,-0.1593,-0.161,-0.1586,-0.1586,-0.1594,-0.1549,-0.1551,-0.1552,-0.1553,0,-0.1075,-0.1075,-0.1107,-0.1121,-0.1161,-0.1152,-0.119,-0.1199,-0.1226,-0.1324,-0.1316,-0.1379,-0.1449,-0.1431,-0.1441,-0.143,-0.1424,-0.1388,-0.1406,-0.1421,-0.1383,-0.1329,-0.1189,0,0,0,0,0,-0.1002,-0.0977,-0.0996,-0.1008,-0.1053,-0.1063,-0.1121,-0.1163,-0.1246,-0.1199,-0.1254,-0.1262,-0.1268,-0.131,-0.127,-0.1385,-0.1437,-0.1332,-0.1406,-0.148,-0.1494,-0.1467,0,0,0,0,0,0,-0.0946,-0.0953,-0.0952,-0.0908,-0.0898,-0.0922,-0.0951,-0.1011,-0.0999,-0.1095,-0.1107,-0.1179,-0.121,-0.1266,-0.1239,-0.1252,-0.1273,-0.1382,-0.1378,-0.1472,-0.1485,-0.1496,-0.1474,0,0,0,0,0]},{"header":{"parameterUnit":"m.s-1","parameterCategory":2,"la1":30.2991,"la2":30.254,"lo1":-89.0895,"lo2":-89.0444,"dy":0.0017,"dx":0.0017,"nx":28,"ny":28,"refTime":"2025-11-10T09:00:00:Z","depth":"4","parameterNumber":3,"parameterNumberName":"V-component_of_CURRENTS"},"data":[0,0,0,0,0,0,0,0,0,0,0,0,0,0,0,0,0,0,0,0,0,0,0,0,0,0,0,0,0,0,0,0,0,0,0,0,0,0,0,0,0,0,0,0,0,0,0,0,0,0,0,0,0,0,0,0,0,0,0.026,0.0261,0,0.027,0.027,0.027,0.0301,0.0302,0.0303,0.0304,0.0274,0.0272,0.0271,0,0,0,0,0,0,0,0,0,0,0,0,0,0.0219,0.0219,0.026,0.0261,0.0261,0.027,0.027,0.027,0.0301,0.0302,0.0303,0.0304,0.0275,0.0273,0.0271,0,0,0,0,0,0,0,0,0,0,0,0,0,0.0232,0.022,0.026,0.0279,0.0281,0.027,0.027,0.027,0.0301,0.0302,0.0304,0.0305,0.0275,0.0273,0.027,0.023,0,0,0.0263,0.0262,0,0,0,0,0,0,0,0,0.0231,0.0233,0.0276,0.0277,0.028,0.0287,0.0244,0.0255,0.0301,0.0292,0.0304,0.0305,0.0275,0.0272,0.027,0.0229,0.0228,0.0263,0.0262,0.0261,0.026,0,0,0,0,0,0,0,0.023,0.0233,0.0263,0.0276,0.0278,0.0269,0.0273,0.0246,0.0274,0.0293,0.0295,0.0298,0.0275,0.0272,0.0269,0.0227,0.0263,0.0261,0.026,0.0259,0.0169,0.0168,0,0,0,0,0,0,0.0234,0.0232,0.0262,0.0263,0.026,0.0269,0.0273,0.0282,0.0275,0.0276,0.0297,0.03,0.0276,0.0272,0.0268,0.0225,0.0261,0.0258,0.0257,0.017,0.0169,0.0168,0,0,0,0,0,0,0.0233,0.0236,0.0262,0.0249,0.0252,0.0269,0.0279,0.0282,0.0284,0.028,0.028,0.0298,0.0276,0.0272,0.0241,0.0224,0.0257,0.0255,0.0171,0.017,0.0168,0.0135,0,0,0,0,0,0,0.0231,0.0236,0.0237,0.0249,0.0252,0.0252,0.0278,0.0281,0.0285,0.0288,0.0279,0.0278,0.0277,0.0244,0.0238,0.0221,0.0253,0.0172,0.0171,0.0169,0.0137,0.0133,0.0129,0,0,0,0,0,0.023,0.0229,0.0237,0.0241,0.0256,0.0251,0.0251,0.0267,0.0283,0.0275,0.027,0.0279,0.0229,0.0241,0.0234,0.0216,0.0173,0.0171,0.0169,0.0139,0.0134,0.0129,0,0,0,0,0,0,0.0212,0.0232,0.0242,0.0248,0.0247,0.0257,0.0252,0.0263,0.0253,0.0257,0.0258,0.0254,0.0223,0.022,0.0233,0.0186,0.0206,0.0202,0.0185,0.018,0.0176,0.0179,0.0251,0,0,0,0,0,0.0208,0.0213,0.0225,0.0227,0.0228,0.0239,0.0238,0.0248,0.0244,0.0243,0.0236,0.0226,0.0207,0.0195,0.0178,0.0143,0.0152,0.013,0.0126,0.0122,0.012,0.0115,0.011,0.0161,0.0161,0.0161,0,0,0.0204,0.0213,0.0217,0.0223,0.0227,0.0215,0.0241,0.0239,0.0225,0.0237,0.0211,0.0206,0.0194,0.0161,0.0148,0.0158,0.0112,0.0119,0.0116,0.0116,0.0112,0.0107,0.0103,0.0159,0.016,0.016,0,0,0.019,0.0203,0.02,0.0195,0.0197,0.0197,0.0196,0.0199,0.0199,0.017,0.0179,0.0163,0.0131,0.0122,0.0113,0.0071,0.009,0.0069,0.0046,0.0041,0.0037,0.0033,0.0042,0.0039,0.0067,0.0066,0.0066,0,0.0185,0.0184,0.0195,0.0184,0.0175,0.0188,0.0172,0.0165,0.0155,0.0146,0.0157,0.0119,0.0111,0.0077,0.0068,0.0061,0.0068,0.0068,0.0036,0.0032,0.003,0.0039,0.0037,0.0065,0.0065,0.0065,0.0065,0,0.0171,0.0161,0.0155,0.0146,0.0132,0.0121,0.0113,0.0099,0.01,0.0097,0.0067,0.0058,0.0041,0.0035,0.0037,0.001,0.0026,0.0032,0.0051,0.0023,0.0034,0.0032,0.0062,0.0063,0.0063,0.0064,0,0,0.0194,0.0154,0.0155,0.0131,0.0112,0.0099,0.0069,0.0047,0.0031,0.0021,0.0001,-0.0026,-0.0014,-0.0023,-0.002,-0.0024,-0.0036,-0.0005,-0.0004,0.0008,-0.0037,0.0004,0.0006,-0.0033,-0.0034,-0.0034,-0.0019,0,0.0183,0.0148,0.013,0.0086,0.0064,0.0048,0.0014,-0.0006,-0.0017,-0.0037,-0.0037,-0.0058,-0.0042,-0.0048,-0.0051,-0.004,-0.0043,-0.004,-0.0015,-0.0014,0.0029,0.0005,-0.0036,-0.002,-0.002,-0.0021,-0.0021,0,0.0187,0.0157,0.0115,0.0048,0.0038,0.0006,-0.0039,-0.0068,-0.0091,-0.0097,-0.0107,-0.0101,-0.0111,-0.0091,-0.0084,-0.0081,-0.0064,-0.0051,-0.005,-0.0001,0.0024,0.0013,-0.0023,-0.0023,-0.0023,-0.0023,-0.0023,0,0.0209,0.0148,0.011,0.0091,0.0022,-0.001,-0.0048,-0.0083,-0.0113,-0.0131,-0.0143,-0.0145,-0.0149,-0.0131,-0.0094,-0.0093,-0.0074,-0.0071,-0.002,-0.0016,-0.0041,-0.0037,-0.0072,-0.0072,-0.0072,-0.0072,-0.0072,0,0.0211,0.0178,0.0112,0.0092,0.0031,-0.0015,-0.0076,-0.0102,-0.0145,-0.018,-0.0171,-0.0186,-0.0159,-0.014,-0.0106,-0.0058,-0.0083,-0.0026,-0.0013,-0.0055,-0.0053,-0.0042,-0.0038,-0.0071,-0.0072,-0.0072,-0.0072,0,0.0234,0.0197,0.0151,0.0075,0.004,0.0002,-0.0101,-0.0143,-0.0173,-0.0215,-0.0222,-0.0221,-0.0192,-0.015,-0.0116,-0.0074,-0.0033,-0.0011,-0.0048,-0.0037,0.003,0.0032,0.0037,0.0039,0.004,0.0041,0.0042,0,0.0231,0.0216,0.0151,0.0117,0.0074,-0.0005,-0.0068,-0.0143,-0.0188,-0.0235,-0.0251,-0.0237,-0.0224,-0.0142,-0.0092,-0.0016,-0.0004,0.0023,0.0014,0.0028,0.0039,0.0039,0.0038,0.0044,0.0044,0.0045,0.0045,0,0.0233,0.0232,0.0204,0.015,0.0081,-0.0019,-0.0112,-0.0156,-0.0236,-0.0259,-0.0277,-0.024,-0.0201,-0.0136,-0.0068,-0.0016,0.0009,0.0036,0.0033,0.0025,0.0036,0.0046,0.0044,0.0049,0.0049,0.0048,0.0048,0,0.0255,0.0252,0.0244,0.0194,0.0106,-0.0004,-0.0081,-0.0163,-0.0221,-0.0283,-0.0283,-0.0248,-0.0234,-0.0136,-0.0075,-0.0011,-0.0002,0.0017,0.0015,0.0011,0.0007,0.0018,0.0032,0,0,0,0,0,0.0289,0.0312,0.0271,0.0217,0.0127,0.0072,-0.0088,-0.0166,-0.0253,-0.0266,-0.0281,-0.0245,-0.0161,-0.0127,-0.0058,-0.0043,0.0019,0.0042,0.0042,0.0074,0.0068,0.0073,0,0,0,0,0,0,0.0326,0.0324,0.0311,0.0253,0.0214,0.0094,-0.0015,-0.0101,-0.013,-0.0194,-0.0157,-0.0166,-0.0089,-0.0157,-0.0017,-0.0002,0.0013,0.0073,0.0075,0.0076,0.0072,0.0068,0.007,0,0,0,0,0]}]]